Location: Tauranga
(37.6860°S, 176.1670°E)
Time: 18:58:06
(UTC+13:00)

Cosmos 2333 Rocket - Pass Details

Date: 24 January 2019
Orbit: 840 x 862 km, 70.8° (Epoch: 15 February)

Event Time Altitude Azimuth Distance (km) Brightness Sun altitude
Exits shadow 23:35:00 68° 100° (E) 934 2.2 -27.3°
Drops below altitude 10° 23:40:23 10° 153° (SSE) 2,525 5.1 -27.8°
Sets 23:42:53 0° 155° (SSE) 3,466 5.9 -28.0°
